Weather History for Danville, IL

Change the Weather History Date:

Saturday, December 7, 2013

  Actual Average (KLAF) Record (KLAF)
Temperature  
Mean Temperature 16 °F 33 °F  
Max Temperature 23 °F 40 °F 64 °F (1966)
Min Temperature 8 °F 26 °F -7 °F (1977)
Degree Days  
Heating Degree Days 50 32  
Month to date heating degree days 215  
Since 1 July heating degree days 1316  
Cooling Degree Days 0 0  
Month to date cooling degree days 0  
Year to date cooling degree days 983  
Moisture  
Dew Point 6 °F    
Average Humidity 69    
Maximum Humidity 83    
Minimum Humidity 44    
Precipitation  
Precipitation 0.00 in 0.09 in 1.91 in (1966)
Month to date precipitation 0.66  
Year to date precipitation 34.73  
Sea Level Pressure  
Sea Level Pressure 30.56 in    
Wind  
Wind Speed 9 mph (North)    
Max Wind Speed 13 mph    
Max Gust Speed 16 mph    
Visibility 10 miles    
Events      
T = Trace of Precipitation, MM = Missing Value Source: NWS Daily Summary

Daily Weather History Graph

Daily Weather History Graph

Search for Another Location

Airport:

Trip Planner

Search our weather history database for the weather conditions in past years. The results will help you decide how hot, cold, wet, or windy it might be!

Date:

Astronomy

Dec. 07, 2013 Rise Set
Actual Time 6:59 AM CST 4:24 PM CST
Civil Twilight 6:29 AM CST 4:54 PM CST
Nautical Twilight 5:55 AM CST 5:28 PM CST
Astronomical Twilight 5:22 AM CST 6:01 PM CST
Moon 10:44 AM CST (12/7) 10:05 PM CST (12/7)
Length of Visible Light 10h 25m
Length of Day
9h 24m
Waxing Crescent, 29% of the Moon is Illuminated
Dec 7
Waxing Crescent
Dec 9
First Quarter
Dec 17
Full
Dec 25
Last Quarter
Jan 1
New

Hourly Weather History & Observations

Time (CST) Temp. Windchill Dew Point Humidity Pressure Visibility Wind Dir Wind Speed Gust Speed Precip Events Conditions
12:15 AM 12.9 °F 0.7 °F 7.2 °F 78% 30.49 in 10.0 mi NW 9.2 mph - N/A   Clear
12:35 AM 12.7 °F -0.4 °F 7.0 °F 78% 30.49 in 10.0 mi NW 10.4 mph - N/A   Clear
12:55 AM 12.2 °F -0.2 °F 6.8 °F 79% 30.50 in 10.0 mi NW 9.2 mph - N/A   Clear
1:15 AM 12.0 °F -2.7 °F 6.8 °F 80% 30.50 in 10.0 mi NW 12.7 mph - N/A   Clear
1:35 AM 12.0 °F -2.7 °F 6.6 °F 79% 30.51 in 10.0 mi NW 12.7 mph 16.1 mph N/A   Clear
1:55 AM 11.7 °F -2.5 °F 6.4 °F 80% 30.51 in 10.0 mi NNW 11.5 mph - N/A   Clear
2:15 AM 11.3 °F -2.2 °F 6.3 °F 80% 30.52 in 10.0 mi NNW 10.4 mph - N/A   Clear
2:35 AM 11.1 °F -3.2 °F 6.3 °F 81% 30.52 in 10.0 mi NNW 11.5 mph - N/A   Clear
2:55 AM 10.8 °F -1.1 °F 5.9 °F 81% 30.52 in 10.0 mi NNW 8.1 mph - N/A   Clear
3:15 AM 10.8 °F 0.0 °F 5.9 °F 81% 30.52 in 10.0 mi NNW 6.9 mph - N/A   Clear
3:35 AM 10.2 °F -0.6 °F 5.7 °F 82% 30.53 in 10.0 mi NNW 6.9 mph - N/A   Clear
3:55 AM 10.2 °F -2.7 °F 5.5 °F 81% 30.53 in 10.0 mi NNW 9.2 mph - N/A   Clear
4:15 AM 10.0 °F -2.9 °F 5.5 °F 82% 30.54 in 10.0 mi NNW 9.2 mph - N/A   Clear
4:35 AM 9.9 °F -1.1 °F 5.0 °F 81% 30.55 in 10.0 mi NW 6.9 mph - N/A   Clear
4:55 AM 9.5 °F -3.5 °F 5.0 °F 82% 30.56 in 10.0 mi NW 9.2 mph - N/A   Clear
5:15 AM 9.5 °F -4.4 °F 5.0 °F 82% 30.56 in 10.0 mi NNW 10.4 mph - N/A   Clear
5:35 AM 9.0 °F -4.2 °F 4.6 °F 83% 30.56 in 10.0 mi NNW 9.2 mph - N/A   Clear
5:55 AM 8.6 °F -4.7 °F 4.5 °F 83% 30.57 in 10.0 mi NNW 9.2 mph - N/A   Clear
6:15 AM 8.6 °F -3.7 °F 4.1 °F 82% 30.58 in 10.0 mi NNW 8.1 mph - N/A   Clear
6:35 AM 8.2 °F -5.1 °F 3.9 °F 83% 30.59 in 10.0 mi NW 9.2 mph - N/A   Clear
6:55 AM 8.2 °F -4.1 °F 3.7 °F 82% 30.60 in 10.0 mi NW 8.1 mph - N/A   Clear
7:15 AM 8.1 °F -4.3 °F 3.7 °F 83% 30.60 in 10.0 mi NNW 8.1 mph - N/A   Clear
7:35 AM 8.6 °F -4.7 °F 3.9 °F 81% 30.60 in 10.0 mi NNW 9.2 mph - N/A   Clear
7:55 AM 9.5 °F -4.4 °F 4.6 °F 81% 30.61 in 10.0 mi NNW 10.4 mph - N/A   Clear
8:15 AM 10.2 °F -4.3 °F 4.6 °F 78% 30.62 in 10.0 mi NNW 11.5 mph - N/A   Clear
8:35 AM 11.7 °F -1.7 °F 5.5 °F 76% 30.62 in 10.0 mi NNW 10.4 mph - N/A   Clear
8:55 AM 12.9 °F -0.2 °F 6.3 °F 75% 30.62 in 10.0 mi North 10.4 mph - N/A   Clear
9:15 AM 13.8 °F 2.7 °F 6.3 °F 72% 30.63 in 10.0 mi NNW 8.1 mph - N/A   Clear
9:35 AM 14.9 °F 4.0 °F 7.0 °F 71% 30.63 in 10.0 mi North 8.1 mph - N/A   Clear
9:55 AM 16.2 °F 5.5 °F 7.5 °F 69% 30.64 in 10.0 mi North 8.1 mph - N/A   Clear
10:15 AM 16.9 °F 6.4 °F 6.1 °F 63% 30.64 in 10.0 mi North 8.1 mph - N/A   Clear
10:35 AM 18.3 °F 10.2 °F 6.4 °F 60% 30.63 in 10.0 mi North 5.8 mph - N/A   Clear
10:55 AM 19.0 °F 9.0 °F 4.1 °F 52% 30.63 in 10.0 mi North 8.1 mph - N/A   Clear
11:15 AM 20.1 °F 11.3 °F 3.4 °F 48% 30.62 in 10.0 mi North 6.9 mph - N/A   Clear
11:35 AM 20.5 °F 10.8 °F 3.7 °F 48% 30.61 in 10.0 mi North 8.1 mph - N/A   Clear
11:55 AM 20.5 °F 8.6 °F 3.6 °F 48% 30.61 in 10.0 mi North 11.5 mph 16.1 mph N/A   Clear
12:15 PM 21.7 °F 10.8 °F 3.2 °F 45% 30.60 in 10.0 mi North 10.4 mph - N/A   Clear
12:35 PM 21.7 °F 13.2 °F 2.7 °F 44% 30.60 in 10.0 mi North 6.9 mph - N/A   Clear
12:55 PM 22.3 °F 12.2 °F 4.5 °F 46% 30.59 in 10.0 mi North 9.2 mph - N/A   Clear
1:15 PM 22.6 °F 14.3 °F 4.3 °F 45% 30.58 in 10.0 mi NNW 6.9 mph - N/A   Clear
1:35 PM 22.1 °F 12.8 °F 3.9 °F 46% 30.58 in 10.0 mi North 8.1 mph - N/A   Clear
1:55 PM 22.6 °F 15.3 °F 4.6 °F 46% 30.58 in 10.0 mi North 5.8 mph - N/A   Clear
2:15 PM 23.4 °F 15.2 °F 4.8 °F 45% 30.57 in 10.0 mi NNW 6.9 mph - N/A   Clear
2:35 PM 22.8 °F 15.5 °F 4.5 °F 45% 30.57 in 10.0 mi North 5.8 mph - N/A   Clear
2:55 PM 22.5 °F 13.2 °F 5.4 °F 48% 30.56 in 10.0 mi North 8.1 mph - N/A   Clear
3:15 PM 21.7 °F 11.5 °F 5.0 °F 49% 30.56 in 10.0 mi North 9.2 mph - N/A   Clear
3:35 PM 21.2 °F 11.7 °F 5.4 °F 51% 30.56 in 10.0 mi North 8.1 mph - N/A   Clear
3:55 PM 20.8 °F 12.1 °F 5.2 °F 51% 30.57 in 10.0 mi North 6.9 mph - N/A   Clear
4:15 PM 19.6 °F 11.7 °F 5.5 °F 55% 30.56 in 10.0 mi North 5.8 mph - N/A   Clear
4:35 PM 18.7 °F 10.6 °F 5.7 °F 57% 30.56 in 10.0 mi NNE 5.8 mph - N/A   Clear
4:55 PM 17.4 °F 8.0 °F 5.7 °F 60% 30.57 in 10.0 mi North 6.9 mph - N/A   Clear
5:15 PM 16.2 °F 6.5 °F 6.4 °F 66% 30.58 in 10.0 mi North 6.9 mph - N/A   Clear
5:35 PM 16.3 °F 7.8 °F 6.3 °F 65% 30.59 in 10.0 mi North 5.8 mph - N/A   Clear
5:55 PM 15.6 °F 7.0 °F 6.8 °F 68% 30.59 in 10.0 mi North 5.8 mph - N/A   Clear
6:15 PM 15.1 °F 4.2 °F 6.8 °F 70% 30.57 in 10.0 mi North 8.1 mph - N/A   Clear
6:35 PM 15.8 °F 7.2 °F 6.8 °F 68% 30.57 in 10.0 mi NNE 5.8 mph - N/A   Clear
6:55 PM 15.1 °F 4.2 °F 6.8 °F 70% 30.57 in 10.0 mi NNE 8.1 mph - N/A   Clear
7:15 PM 14.4 °F 4.3 °F 6.4 °F 71% 30.56 in 10.0 mi NNE 6.9 mph - N/A   Clear
7:35 PM 14.0 °F 5.1 °F 6.4 °F 72% 30.56 in 10.0 mi NNE 5.8 mph - N/A   Clear
7:55 PM 13.8 °F 8.0 °F 6.4 °F 72% 30.55 in 10.0 mi NE 3.5 mph - N/A   Clear
8:15 PM 13.3 °F 5.6 °F 5.9 °F 72% 30.54 in 10.0 mi NE 4.6 mph - N/A   Clear
8:35 PM 15.3 °F 6.6 °F 5.9 °F 67% 30.53 in 10.0 mi NE 5.8 mph - N/A   Clear
8:55 PM 15.3 °F 5.4 °F 6.3 °F 68% 30.52 in 10.0 mi NE 6.9 mph - N/A   Clear
9:15 PM 15.6 °F 5.9 °F 7.2 °F 69% 30.51 in 10.0 mi NE 6.9 mph - N/A   Clear
9:35 PM 16.0 °F 4.4 °F 8.4 °F 72% 30.50 in 10.0 mi NE 9.2 mph - N/A   Clear
9:55 PM 16.2 °F 5.5 °F 9.5 °F 75% 30.50 in 10.0 mi ENE 8.1 mph - N/A   Clear
10:15 PM 16.2 °F 6.5 °F 10.0 °F 77% 30.49 in 10.0 mi ENE 6.9 mph - N/A   Clear
10:35 PM 16.2 °F 10.6 °F 10.4 °F 78% 30.51 in 10.0 mi East 3.5 mph - N/A   Clear
10:55 PM 16.2 °F - 10.4 °F 78% 30.51 in 10.0 mi Calm Calm - N/A   Clear
11:15 PM 16.7 °F 11.2 °F 10.4 °F 76% 30.51 in 10.0 mi ENE 3.5 mph - N/A   Clear
11:35 PM 16.7 °F - 11.1 °F 79% 30.51 in 10.0 mi Calm Calm - N/A   Clear
11:55 PM 16.5 °F 9.4 °F 11.7 °F 81% 30.51 in 10.0 mi North 4.6 mph - N/A   Clear